STARLINK-1285 (45410 NORAD) Tracking and Keplerian Element Data

This shows tracking and keplerian element data for the satellite.

Feedback or suggestion? Click here.




ElementValue
Catalog45410
NameSTARLINK-1285
Epoch Orbit176
Epoch Day193.91667824
Epoch Year2020
RAAN54.7113
Inclination52.9998
Eccentricity9.88E-05
Argument of Perigee83.165
Mean Anonmoly17.0118
Mean Motion15.0560369
Decay Rate-0.00013179
L11 45410U 20019BC 20193.91667824 -.00013179 00000-0 -88648-3 0 9994
L22 45410 52.9998 54.7113 0000988 83.1650 17.0118 15.05603690 1764

Live tracking and technical data element details for STARLINK-1285 (NORAD 45410). STARLINK-1285 can be tracked NOW for your location showing map with azimuth and elevation plus other details from your city location.

Track the satellite on the map from your city or location and see movement details for azimuth, elevation, latitude, longitude, range, height, and movement on the map or in text.







IsCatalogInMostPopularTable: catalog: 45410, numindb: 26
Update: records affected: 1



GetName: 45410 STARLINK-1285

Hit Count: updated at: Mon, 13 Jul 2020 03:58:25 GMT